sat.trackr.live / text

‹ back to catalog

STARLINK-5759

NORAD 55592 · 2023-020Z

PAYLOAD ACTIVE UNKNOWN

§ Identity

Operator
Country
US
Launch date
2023-02-12
Launch site
AFETR
Launch vehicle
Mass (kg)
RCS (m²)

Purposes: comms

External: N2YO · Heavens-Above · Gunter

§ Orbital elements

Epoch: 2026-05-25T02:36:09.805248Z

Period
94.27 min
Inclination
43.0025°
Eccentricity
0.0000946
Mean motion
15.27575906 rev/d
Perigee alt
482.4 km
Apogee alt
483.7 km
Semi-major
6,861.2 km
B*
3.3486e-6
RAAN
293.3216°
Arg perigee
270.1794°
Mean anomaly
89.8949°
Rev number
18,060

§ Raw data

STARLINK-57591 55592U 23020Z   26145.10844682 -.00000170  00000+0  33486-5 0  99912 55592  43.0025 293.3216 0000946 270.1794  89.8949 15.27575906180606

JSON: /api/v1/satellites/55592 · /tle

For live sub-satellite position, see the globe view (requires WebGL).

§ Visibility from observer

Set your observer location to see the next 7 days of passes ≥ 10°. The values pass through the URL so the page stays shareable.

No JS? Fill the form by hand. The geolocation button needs JavaScript.